カタログに戻る

ONEWEB-0661

運用中通信PO
NORAD 55821·PAYLOAD·🇬🇧 United Kingdom

打ち上げ Mar 9, 2023 から Cape Canaveral Space Force Station

Loading…

次のパス (今後24時間)

TLE

最新Source: CelesTrak SupGP

元期: Sep 14, 2026, 18:12 UTC

1 55821C 23029AB  26257.75881944 -.00001250  00000+0 -33763-2 0  2575
2 55821  87.8882 271.8720 0002211  91.0911 303.2133 13.14499124    12

AllMySatでONEWEB-0661をリアルタイム追跡

Download on the App Store